Flag Weather past 2 weeks in Sarnia, Ontario, Canada

Now
25 °F

Mostly cloudy.


Feels Like: 11 °F
Forecast: 21 / 28 °F
Wind: 17 mph from Northwest

Location: Sarnia Airport

Current Time: Nov 27, 2014 at 11:43:36 PM

Latest Report: Nov 27, 2014 at 11:00 PM


Visibility: 9 mi

Pressure: 30.29 "Hg

Humidity: 59%

Dew point: 12 °F

Location of SarniaLocation

Historic Weather in Sarnia — Graph

°F

Sarnia temperature yesterday

Maximum temperature yesterday: 34 °F (at 12:00 PM)
Minimum temperature yesterday: 30 °F (at 2:00 AM)
Average temperature yesterday: 32 °F

Past Weeks' High & Low Weather Summary

 TemperatureHumidityPressure
High57 °F (Nov 24, 2:00 PM)100% (Nov 16, 10:00 PM)30.48 "Hg (Nov 16, 10:00 PM)
Low10 °F (Nov 21, 7:00 AM)50% (Nov 21, 1:00 PM)29.05 "Hg (Nov 24, 5:00 AM)
Average30 °F76%29.99 "Hg
* Reported Nov 12 11:00 PM — Nov 27 11:00 PM, Sarnia, Weather by CustomWeather, © 2014

Note: Actual official high and low records may vary slightly from our data, if they occured in-between our weather recording intervals... More about our weather records

Advertising

Sarnia weather history for previous 24 hours

 ConditionsComfort  
Time TempWeatherWind HumidityBarometerVisibility
11:00 PM
Nov 27
25 °FMostly cloudy.17 mph59%30.29 "Hg9 mi
10:00 PM25 °FPartly cloudy.15 mph69%30.27 "Hg9 mi
9:46 PM27 °FMostly cloudy.14 mph64%30.27 "Hg9 mi
9:00 PM27 °FMostly cloudy.18 mph69%30.27 "Hg9 mi
8:59 PM27 °FMostly cloudy.17 mph69%30.27 "Hg9 mi
8:00 PM28 °FLight snow. Overcast.16 mph64%30.26 "Hg9 mi
7:00 PM28 °FOvercast.18 mph64%30.25 "Hg9 mi
6:00 PM28 °FLight snow. Overcast.13 mph69%30.22 "Hg9 mi
5:00 PM28 °FMostly cloudy.20 mph80%30.20 "Hg9 mi
4:02 PM30 °FLight snow. Cloudy.17 mph80%30.17 "Hg9 mi
3:00 PM30 °FLight snow. Mostly cloudy.16 mph80%30.15 "Hg5 mi
2:59 PM30 °FLight snow. Mostly cloudy.16 mph80%30.15 "Hg5 mi
2:00 PM32 °FOvercast.14 mph75%30.14 "Hg9 mi
1:00 PM32 °FOvercast.14 mph69%30.13 "Hg9 mi
12:04 PM32 °FOvercast.9 mph69%30.14 "Hg9 mi
11:00 AM32 °FMostly cloudy.12 mph69%30.14 "Hg9 mi
10:58 AM32 °FMostly cloudy.13 mph69%30.14 "Hg9 mi
10:00 AM32 °FOvercast.12 mph69%30.13 "Hg9 mi
9:00 AM30 °FOvercast.12 mph75%30.13 "Hg9 mi
8:00 AM28 °FOvercast.12 mph80%30.12 "Hg9 mi
7:00 AM28 °FOvercast.9 mph80%30.11 "Hg9 mi
6:00 AM30 °FOvercast.8 mph75%30.10 "Hg9 mi
5:00 AM30 °FOvercast.15 mph75%30.10 "Hg9 mi
4:00 AM30 °FOvercast.14 mph80%30.09 "Hg9 mi
3:00 AM30 °FOvercast.7 mph86%30.09 "Hg9 mi
2:45 AM32 °FMostly cloudy.8 mph80%30.09 "Hg9 mi
2:00 AM32 °FMostly cloudy.12 mph80%30.09 "Hg9 mi
1:00 AM32 °FLight snow. Overcast.7 mph87%30.09 "Hg9 mi
12:51 AM32 °FLight snow. Overcast.7 mph87%30.09 "Hg9 mi
12:00 AM30 °FLight snow. Mostly cloudy.3 mph86%30.10 "Hg3 mi
11:04 PM
Nov 26
32 °FLight snow. Overcast.7 mph87%30.10 "Hg9 mi
Weather by CustomWeather, © 2014

See weather overviewHow to use our weather pages